| time (UTC) | temp F | wind direction | speed MPH | gust MPH | rain 1hr in | rain 24hr in | rain mn in | humidity % | barometer mb |
| 20260509203504 | 60 | 244 | 14.0 | 30.0 | 0.00 | 0.15 | 0.03 | 80 | 1004.2 |
| 20260509202505 | 59 | 256 | 16.0 | 31.0 | 0.00 | 0.15 | 0.03 | 80 | 1004.0 |
| 20260509201506 | 59 | 245 | 21.0 | 47.0 | 0.00 | 0.15 | 0.03 | 79 | 1003.9 |
| 20260509200005 | 58 | 245 | 14.0 | 22.0 | 0.00 | 0.15 | 0.03 | 83 | 1003.8 |
| 20260509195507 | 58 | 251 | 19.0 | 28.0 | 0.00 | 0.15 | 0.03 | 83 | 1003.8 |
| 20260509193504 | 58 | 249 | 20.0 | 28.0 | 0.00 | 0.15 | 0.03 | 86 | 1003.5 |
| 20260509192506 | 57 | 256 | 16.0 | 24.0 | 0.00 | 0.15 | 0.03 | 88 | 1003.5 |
| 20260509191505 | 58 | 256 | 9.0 | 24.0 | 0.00 | 0.15 | 0.03 | 87 | 1003.7 |
| 20260509190507 | 57 | 245 | 12.0 | 25.0 | 0.03 | 0.15 | 0.03 | 87 | 1003.3 |
| 20260509185006 | 56 | 252 | 14.0 | 25.0 | 0.02 | 0.15 | 0.02 | 91 | 1003.3 |
| 20260509184504 | 56 | 254 | 13.0 | 23.0 | 0.02 | 0.15 | 0.02 | 91 | 1003.2 |
| 20260509184004 | 56 | 250 | 15.0 | 21.0 | 0.02 | 0.15 | 0.02 | 91 | 1003.0 |
| 20260509183006 | 55 | 255 | 11.0 | 17.0 | 0.02 | 0.15 | 0.02 | 90 | 1003.1 |
| 20260509181506 | 56 | 248 | 11.0 | 22.0 | 0.02 | 0.15 | 0.02 | 89 | 1003.5 |
| 20260509180506 | 57 | 223 | 14.0 | 21.0 | 0.00 | 0.12 | 0.00 | 86 | 1003.3 |
| 20260509180006 | 57 | 251 | 15.0 | 25.0 | 0.00 | 0.13 | 0.00 | 85 | 1003.2 |
| 20260509175005 | 57 | 232 | 19.0 | 29.0 | 0.00 | 0.16 | 0.00 | 86 | 1003.5 |
| 20260509174004 | 58 | 249 | 20.0 | 35.0 | 0.00 | 0.16 | 0.00 | 82 | 1003.3 |
| 20260509173504 | 58 | 250 | 13.0 | 21.0 | 0.00 | 0.16 | 0.00 | 79 | 1003.3 |
| 20260509173006 | 58 | 255 | 12.0 | 23.0 | 0.00 | 0.16 | 0.00 | 79 | 1003.1 |
| 20260509171506 | 58 | 242 | 15.0 | 28.0 | 0.00 | 0.16 | 0.00 | 80 | 1003.0 |
| 20260509170504 | 58 | 244 | 17.0 | 30.0 | 0.00 | 0.16 | 0.00 | 79 | 1002.9 |
| 20260509170006 | 58 | 242 | 17.0 | 23.0 | 0.00 | 0.16 | 0.00 | 79 | 1003.1 |
| 20260509165007 | 58 | 238 | 15.0 | 23.0 | 0.00 | 0.16 | 0.00 | 79 | 1002.9 |
| 20260509164507 | 58 | 253 | 14.0 | 22.0 | 0.00 | 0.16 | 0.00 | 79 | 1003.0 |
| 20260509163508 | 58 | 249 | 13.0 | 20.0 | 0.00 | 0.16 | 0.00 | 78 | 1002.9 |
| 20260509162506 | 58 | 254 | 15.0 | 31.0 | 0.00 | 0.16 | 0.00 | 76 | 1002.7 |
| 20260509162008 | 58 | 243 | 14.0 | 23.0 | 0.00 | 0.16 | 0.00 | 77 | 1002.6 |
| 20260509161007 | 57 | 236 | 17.0 | 29.0 | 0.00 | 0.16 | 0.00 | 76 | 1002.9 |
| 20260509160506 | 57 | 253 | 16.0 | 24.0 | 0.00 | 0.16 | 0.00 | 77 | 1002.7 |
| 20260509155506 | 58 | 243 | 14.0 | 23.0 | 0.00 | 0.16 | 0.00 | 77 | 1002.8 |
| 20260509154508 | 58 | 254 | 15.0 | 24.0 | 0.00 | 0.16 | 0.00 | 79 | 1002.8 |
| 20260509151506 | 58 | 237 | 14.0 | 24.0 | 0.00 | 0.16 | 0.00 | 79 | 1003.0 |
| 20260509151007 | 58 | 239 | 16.0 | 21.0 | 0.00 | 0.16 | 0.00 | 78 | 1002.8 |
| 20260509150506 | 58 | 250 | 12.0 | 23.0 | 0.00 | 0.16 | 0.00 | 78 | 1003.0 |
| 20260509150008 | 58 | 251 | 14.0 | 24.0 | 0.00 | 0.16 | 0.00 | 79 | 1003.1 |
| 20260509145007 | 58 | 252 | 11.0 | 18.0 | 0.00 | 0.16 | 0.00 | 80 | 1003.1 |
| 20260509142007 | 57 | 241 | 12.0 | 21.0 | 0.00 | 0.16 | 0.00 | 81 | 1003.6 |
| 20260509141507 | 57 | 258 | 11.0 | 17.0 | 0.00 | 0.16 | 0.00 | 81 | 1003.3 |
| 20260509141008 | 58 | 243 | 12.0 | 18.0 | 0.00 | 0.16 | 0.00 | 80 | 1003.3 |
| 20260509140007 | 58 | 257 | 10.0 | 22.0 | 0.00 | 0.16 | 0.00 | 80 | 1003.3 |
| 20260509134508 | 57 | 245 | 12.0 | 21.0 | 0.00 | 0.16 | 0.00 | 80 | 1003.4 |
| 20260509134006 | 57 | 243 | 14.0 | 20.0 | 0.00 | 0.16 | 0.00 | 80 | 1003.4 |
| 20260509133506 | 57 | 252 | 9.0 | 16.0 | 0.00 | 0.16 | 0.00 | 82 | 1003.4 |
| 20260509133008 | 57 | 239 | 11.0 | 21.0 | 0.00 | 0.16 | 0.00 | 83 | 1003.2 |
| 20260509132506 | 57 | 244 | 12.0 | 18.0 | 0.00 | 0.16 | 0.00 | 82 | 1003.1 |
| 20260509131506 | 57 | 245 | 10.0 | 17.0 | 0.00 | 0.16 | 0.00 | 82 | 1003.0 |
| 20260509131008 | 57 | 241 | 14.0 | 21.0 | 0.00 | 0.16 | 0.00 | 82 | 1003.3 |
| 20260509124508 | 58 | 244 | 8.0 | 15.0 | 0.00 | 0.16 | 0.00 | 85 | 1003.4 |
| 20260509124008 | 58 | 236 | 10.0 | 16.0 | 0.00 | 0.16 | 0.00 | 85 | 1003.4 |
| 20260509123507 | 58 | 242 | 11.0 | 20.0 | 0.00 | 0.16 | 0.00 | 85 | 1003.4 |
| 20260509122506 | 57 | 245 | 9.0 | 17.0 | 0.00 | 0.17 | 0.00 | 86 | 1003.4 |
| 20260509121506 | 57 | 236 | 10.0 | 20.0 | 0.00 | 0.17 | 0.00 | 88 | 1003.5 |
| 20260509120506 | 57 | 240 | 9.0 | 18.0 | 0.00 | 0.18 | 0.00 | 90 | 1003.7 |
| 20260509120008 | 57 | 252 | 9.0 | 17.0 | 0.00 | 0.19 | 0.00 | 90 | 1003.7 |
| 20260509114508 | 58 | 246 | 12.0 | 20.0 | 0.00 | 0.20 | 0.19 | 88 | 1003.7 |
| 20260509114006 | 58 | 230 | 12.0 | 21.0 | 0.00 | 0.20 | 0.19 | 88 | 1003.8 |
| 20260509112506 | 58 | 234 | 9.0 | 21.0 | 0.00 | 0.21 | 0.19 | 90 | 1003.9 |
| 20260509111006 | 58 | 262 | 7.0 | 13.0 | 0.00 | 0.23 | 0.19 | 91 | 1003.6 |
| 20260509103506 | 57 | 254 | 12.0 | 15.0 | 0.00 | 0.41 | 0.19 | 94 | 1003.3 |
| 20260509102006 | 57 | 266 | 7.0 | 13.0 | 0.00 | 0.43 | 0.19 | 96 | 1003.2 |
| 20260509101505 | 57 | 249 | 7.0 | 9.0 | 0.00 | 0.43 | 0.19 | 96 | 1003.3 |
| 20260509100006 | 57 | 283 | 4.0 | 12.0 | 0.00 | 0.43 | 0.19 | 95 | 1003.3 |
| 20260509095008 | 57 | 301 | 3.0 | 8.0 | 0.00 | 0.43 | 0.19 | 95 | 1003.3 |
| 20260509094506 | 56 | 315 | 5.0 | 8.0 | 0.00 | 0.43 | 0.19 | 95 | 1003.0 |
| 20260509093508 | 56 | 318 | 5.0 | 8.0 | 0.00 | 0.43 | 0.19 | 95 | 1003.3 |
| 20260509091006 | 57 | 273 | 3.0 | 5.0 | 0.00 | 0.44 | 0.19 | 95 | 1003.4 |
| 20260509083506 | 57 | 318 | 9.0 | 10.0 | 0.00 | 0.46 | 0.19 | 94 | 1003.6 |
| 20260509083006 | 57 | 320 | 7.0 | 9.0 | 0.00 | 0.46 | 0.19 | 94 | 1003.6 |
| 20260509081506 | 58 | 318 | 9.0 | 10.0 | 0.00 | 0.46 | 0.19 | 94 | 1003.5 |
| 20260509080506 | 58 | 318 | 7.0 | 8.0 | 0.00 | 0.46 | 0.19 | 94 | 1003.1 |
| 20260509074005 | 58 | 262 | 7.0 | 18.0 | 0.00 | 0.48 | 0.19 | 95 | 1003.6 |
| 20260509072008 | 59 | 324 | 5.0 | 9.0 | 0.00 | 0.48 | 0.18 | 94 | 1003.3 |
| 20260509071506 | 59 | 322 | 6.0 | 9.0 | 0.00 | 0.48 | 0.18 | 95 | 1003.0 |
| 20260509071007 | 59 | 322 | 5.0 | 8.0 | 0.00 | 0.48 | 0.18 | 95 | 1003.2 |
| 20260509065506 | 59 | 290 | 5.0 | 8.0 | 0.00 | 0.49 | 0.18 | 94 | 1003.3 |
| 20260509065007 | 59 | 289 | 5.0 | 8.0 | 0.00 | 0.49 | 0.18 | 94 | 1003.1 |
| 20260509064506 | 59 | 282 | 4.0 | 6.0 | 0.00 | 0.49 | 0.18 | 94 | 1003.1 |
| 20260509063508 | 59 | 319 | 8.0 | 10.0 | 0.00 | 0.49 | 0.18 | 94 | 1003.1 |
| 20260509063017 | 59 | 320 | 8.0 | 10.0 | 0.00 | 0.49 | 0.18 | 94 | 1003.0 |
| 20260509061506 | 59 | 314 | 10.0 | 13.0 | 0.00 | 0.50 | 0.18 | 94 | 1002.9 |
| 20260509060507 | 59 | 316 | 9.0 | 17.0 | 0.00 | 0.50 | 0.18 | 94 | 1002.8 |
| 20260509060006 | 59 | 314 | 11.0 | 15.0 | 0.00 | 0.51 | 0.18 | 94 | 1002.8 |
| 20260509055506 | 59 | 313 | 11.0 | 13.0 | 0.01 | 0.51 | 0.18 | 94 | 1003.0 |
| 20260509054507 | 59 | 314 | 12.0 | 16.0 | 0.02 | 0.52 | 0.18 | 94 | 1002.9 |
| 20260509054006 | 59 | 313 | 9.0 | 14.0 | 0.02 | 0.52 | 0.18 | 93 | 1002.9 |
| 20260509053505 | 59 | 315 | 10.0 | 13.0 | 0.02 | 0.52 | 0.18 | 93 | 1002.9 |
| 20260509053007 | 59 | 316 | 7.0 | 12.0 | 0.03 | 0.52 | 0.18 | 93 | 1002.9 |
| 20260509052507 | 59 | 321 | 5.0 | 10.0 | 0.02 | 0.52 | 0.18 | 93 | 1003.0 |
| 20260509052005 | 59 | 319 | 7.0 | 10.0 | 0.02 | 0.52 | 0.18 | 93 | 1003.0 |
| 20260509050006 | 59 | 306 | 7.0 | 14.0 | 0.03 | 0.53 | 0.18 | 92 | 1002.8 |
| 20260509045007 | 60 | 267 | 8.0 | 16.0 | 0.02 | 0.52 | 0.16 | 92 | 1002.8 |
| 20260509044006 | 60 | 341 | 10.0 | 13.0 | 0.02 | 0.51 | 0.16 | 91 | 1003.0 |
| 20260509043507 | 60 | 338 | 9.0 | 10.0 | 0.02 | 0.51 | 0.16 | 91 | 1002.8 |
| 20260509043006 | 60 | 336 | 6.0 | 8.0 | 0.02 | 0.51 | 0.15 | 91 | 1002.9 |
| 20260509040505 | 60 | 309 | 5.0 | 9.0 | 0.06 | 0.51 | 0.15 | 91 | 1003.3 |
| 20260509035507 | 61 | 264 | 8.0 | 14.0 | 0.05 | 0.50 | 0.15 | 90 | 1003.4 |
| 20260509035005 | 61 | 277 | 6.0 | 14.0 | 0.04 | 0.50 | 0.14 | 90 | 1003.2 |
| 20260509034505 | 61 | 267 | 6.0 | 10.0 | 0.04 | 0.49 | 0.14 | 89 | 1003.3 |
| 20260509033505 | 62 | 291 | 6.0 | 21.0 | 0.04 | 0.49 | 0.13 | 87 | 1003.6 |
| 20260509032507 | 63 | 308 | 20.0 | 23.0 | 0.00 | 0.46 | 0.10 | 84 | 1003.6 |
| 20260509031007 | 64 | 313 | 20.0 | 23.0 | 0.00 | 0.45 | 0.10 | 83 | 1003.6 |
| 20260509030005 | 65 | 309 | 12.0 | 18.0 | 0.00 | 0.45 | 0.10 | 83 | 1003.6 |
| 20260509025506 | 66 | 301 | 11.0 | 17.0 | 0.00 | 0.45 | 0.10 | 84 | 1003.5 |
| 20260509025007 | 65 | 306 | 12.0 | 20.0 | 0.00 | 0.45 | 0.10 | 84 | 1003.4 |
| 20260509024505 | 65 | 314 | 13.0 | 22.0 | 0.00 | 0.45 | 0.10 | 82 | 1003.6 |
| 20260509024005 | 65 | 318 | 17.0 | 25.0 | 0.00 | 0.45 | 0.10 | 82 | 1003.8 |
| 20260509023506 | 66 | 312 | 16.0 | 23.0 | 0.00 | 0.45 | 0.10 | 81 | 1003.8 |
| 20260509022505 | 66 | 309 | 14.0 | 23.0 | 0.00 | 0.45 | 0.10 | 83 | 1003.6 |
| 20260509015504 | 67 | 307 | 16.0 | 23.0 | 0.00 | 0.45 | 0.10 | 79 | 1003.7 |
| 20260509015006 | 67 | 305 | 15.0 | 22.0 | 0.00 | 0.45 | 0.10 | 80 | 1003.6 |
| 20260509014007 | 67 | 309 | 16.0 | 20.0 | 0.00 | 0.45 | 0.10 | 78 | 1003.7 |
| 20260509013006 | 67 | 311 | 17.0 | 22.0 | 0.00 | 0.45 | 0.10 | 79 | 1003.6 |
| 20260509012505 | 67 | 303 | 14.0 | 23.0 | 0.00 | 0.45 | 0.10 | 78 | 1003.6 |
| 20260509012005 | 67 | 303 | 14.0 | 23.0 | 0.00 | 0.45 | 0.10 | 77 | 1003.6 |
| 20260509011507 | 67 | 306 | 17.0 | 23.0 | 0.00 | 0.45 | 0.10 | 78 | 1003.9 |
| 20260509010006 | 67 | 308 | 12.0 | 22.0 | 0.00 | 0.45 | 0.10 | 79 | 1003.9 |
| 20260509005505 | 67 | 304 | 15.0 | 25.0 | 0.00 | 0.45 | 0.10 | 79 | 1003.8 |
| 20260509004505 | 67 | 306 | 17.0 | 24.0 | 0.00 | 0.45 | 0.10 | 83 | 1004.3 |
| 20260509003505 | 67 | 315 | 19.0 | 22.0 | 0.00 | 0.45 | 0.10 | 85 | 1004.5 |
| 20260509002506 | 67 | 317 | 21.0 | 37.0 | 0.00 | 0.45 | 0.10 | 83 | 1004.5 |
| 20260509002006 | 67 | 304 | 10.0 | 21.0 | 0.00 | 0.45 | 0.10 | 84 | 1004.6 |
| 20260509001005 | 66 | 297 | 10.0 | 20.0 | 0.00 | 0.45 | 0.10 | 86 | 1005.0 |
| 20260509000006 | 66 | 314 | 18.0 | 25.0 | 0.00 | 0.45 | 0.10 | 85 | 1005.1 |
| 20260508235506 | 66 | 318 | 17.0 | 24.0 | 0.00 | 0.45 | 0.10 | 88 | 1005.4 |
| 20260508233506 | 64 | 310 | 15.0 | 21.0 | 0.04 | 0.45 | 0.10 | 92 | 1005.6 |
| 20260508233005 | 63 | 309 | 13.0 | 18.0 | 0.04 | 0.45 | 0.10 | 92 | 1005.5 |
| 20260508232505 | 63 | 311 | 14.0 | 18.0 | 0.04 | 0.45 | 0.10 | 92 | 1005.6 |
| 20260508232007 | 62 | 315 | 14.0 | 18.0 | 0.04 | 0.45 | 0.10 | 91 | 1005.7 |
| 20260508230505 | 62 | 312 | 9.0 | 16.0 | 0.04 | 0.45 | 0.10 | 89 | 1005.8 |
| 20260508230007 | 64 | 269 | 12.0 | 24.0 | 0.04 | 0.45 | 0.10 | 88 | 1006.0 |
| 20260508225505 | 65 | 308 | 13.0 | 26.0 | 0.04 | 0.45 | 0.10 | 89 | 1006.0 |
| 20260508224505 | 65 | 306 | 13.0 | 20.0 | 0.01 | 0.43 | 0.07 | 88 | 1005.9 |
| 20260508222007 | 65 | 318 | 25.0 | 29.0 | 0.00 | 0.42 | 0.06 | 86 | 1005.9 |
| 20260508221005 | 65 | 306 | 17.0 | 24.0 | 0.00 | 0.42 | 0.06 | 87 | 1005.9 |
| 20260508215505 | 65 | 313 | 17.0 | 23.0 | 0.00 | 0.42 | 0.06 | 87 | 1006.2 |
| 20260508215005 | 64 | 310 | 18.0 | 22.0 | 0.00 | 0.42 | 0.06 | 87 | 1005.9 |
| 20260508214006 | 64 | 310 | 19.0 | 25.0 | 0.00 | 0.42 | 0.06 | 88 | 1005.9 |
| 20260508213504 | 64 | 309 | 17.0 | 23.0 | 0.00 | 0.42 | 0.06 | 89 | 1005.8 |